Location: Alma
(38.7220°N, 88.9090°W)
Time: 19:56:37
(UTC-06:00)

Vanguard 2 - Pass Details

Date: 17 November 2019
Orbit: 553 x 2938 km, 32.9° (Epoch: 14 December)

Event Time Altitude Azimuth Distance (km) Brightness Sun altitude
Rises 05:40:55 0° 199° (SSW) 6,180 12.1 -11.7°
Reaches altitude 10° 05:47:59 10° 180° (S) 4,664 11.7 -10.3°
Maximum altitude 05:53:46 15° 152° (SSE) 3,792 11.7 -9.3°
Drops below altitude 10° 05:58:32 10° 123° (ESE) 3,687 12.5 -8.4°
Sets 06:02:52 0° 100° (E) 4,205 13.6 -7.6°
